This is the latest recevied weather packets stored in our database for station/object KN6WGU. If no packets are shown the sender has not sent any weather packets the latest 10 day(s).
| Time | Temp. | Humidity | Pressure | Rain* | Wind** | Luminosity | Snow |
|---|---|---|---|---|---|---|---|
| 1787602597 | 25° C | 58% | 1009.2 hPa | 0 mm | - | 506 W/m² | - |
| 1787602293 | 25° C | 59% | 1009.2 hPa | 0 mm | - | 517 W/m² | - |
| 1787601992 | 24.44° C | 58% | 1009.2 hPa | 0 mm | - | 525 W/m² | - |
| 1787601687 | 25° C | 59% | 1009.3 hPa | 0 mm | - | 541 W/m² | - |
| 1787601382 | 25° C | 58% | 1009.3 hPa | 0 mm | - | 548 W/m² | - |
| 1787601081 | 24.44° C | 58% | 1009.5 hPa | 0 mm | - | 555 W/m² | - |
| 1787600776 | 24.44° C | 59% | 1009.3 hPa | 0 mm | - | 566 W/m² | - |
| 1787600472 | 24.44° C | 58% | 1009.4 hPa | 0 mm | - | 576 W/m² | - |
| 1787600167 | 23.89° C | 58% | 1009.6 hPa | 0 mm | - | 582 W/m² | - |
| 1787599864 | 24.44° C | 58% | 1009.4 hPa | 0 mm | - | 595 W/m² | - |
| 1787599560 | 24.44° C | 58% | 1009.3 hPa | 0 mm | - | 598 W/m² | - |
| 1787599256 | 23.89° C | 59% | 1009.5 hPa | 0 mm | - | 601 W/m² | - |
| 1787598951 | 23.89° C | 58% | 1009.6 hPa | 0 mm | - | 614 W/m² | - |
| 1787598647 | 23.89° C | 57% | 1009.6 hPa | 0 mm | - | 618 W/m² | - |
| 1787598346 | 23.33° C | 59% | 1009.4 hPa | 0 mm | - | 620 W/m² | - |
| 1787598043 | 23.89° C | 56% | 1009.5 hPa | 0 mm | - | 630 W/m² | - |
| 1787597742 | 23.33° C | 59% | 1009.5 hPa | 0 mm | - | 647 W/m² | - |
| 1787597442 | 23.33° C | 60% | 1009.7 hPa | 0 mm | - | 654 W/m² | - |
| 1787597136 | 23.33° C | 62% | 1009.6 hPa | 0 mm | - | 680 W/m² | - |
| 1787596833 | 23.33° C | 60% | 1009.6 hPa | 0 mm | - | 235 W/m² | - |
| 1787596528 | 23.33° C | 58% | 1009.7 hPa | 0 mm | - | 709 W/m² | - |
| 1787596223 | 23.33° C | 59% | 1009.8 hPa | 0 mm | - | 719 W/m² | - |
| 1787595920 | 22.78° C | 59% | 1009.7 hPa | 0 mm | - | 707 W/m² | - |
| 1787595620 | 22.78° C | 59% | 1009.8 hPa | 0 mm | - | 692 W/m² | - |
| 1787595316 | 22.78° C | 62% | 1010 hPa | 0 mm | - | 704 W/m² | - |
* Rain latest hour (hover to see other rain measurements)
** Current wind speed in m/s (hover to see current wind gust speed)